NO9B Weather Reports


time (UTC)temp
F
wind
direction
speed
knots
gust
knots
rain 1hr
in
rain 24hr
in
rain mn
in
humidity
%
barometer
mb
20260906133504 71 235 1.7 1.7 0.00 0.00 0.00 85 1021.9
20260906132959 71 272 1.7 3.5 0.00 0.00 0.00 84 1021.9
20260906132454 71 314 0.0 1.7 0.00 0.00 0.00 87 1021.6
20260906131949 70 337 1.7 2.6 0.00 0.00 0.00 88 1021.7
20260906131445 69 296 0.0 1.7 0.00 0.00 0.00 91 1021.5
20260906130940 69 262 0.9 1.7 0.00 0.00 0.00 92 1021.5
20260906130439 69 253 0.0 1.7 0.00 0.00 0.00 95 1021.3
20260906125934 68 273 1.7 1.7 0.00 0.00 0.00 96 1021.3
20260906125432 68 265 0.9 1.7 0.00 0.00 0.00 97 1021.0
20260906124931 68 294 1.7 1.7 0.00 0.00 0.00 97 1021.1
20260906124428 67 307 0.0 0.9 0.00 0.00 0.00 97 1021.0
20260906123927 67 271 0.9 1.7 0.00 0.00 0.00 97 1021.0
20260906123426 67 255 0.9 1.7 0.00 0.00 0.00 97 1020.9
20260906122921 67 285 0.0 1.7 0.00 0.00 0.00 97 1021.1
20260906122421 66 268 1.7 1.7 0.00 0.00 0.00 97 1021.1
20260906121919 66 245 0.9 1.7 0.00 0.00 0.00 97 1021.1
20260906121414 66 277 0.9 1.7 0.00 0.00 0.00 96 1021.0
20260906120911 66 264 1.7 1.7 0.00 0.00 0.00 96 1021.0
20260906120406 66 260 0.9 1.7 0.00 0.00 0.00 96 1020.8
20260906115902 66 230 1.7 1.7 0.00 0.00 0.00 96 1020.6
20260906115357 66 237 0.9 1.7 0.00 0.00 0.00 96 1020.5
20260906114856 66 257 0.0 1.7 0.00 0.00 0.00 96 1020.5
20260906114352 66 268 0.9 1.7 0.00 0.00 0.00 96 1020.7
20260906113847 66 283 0.9 1.7 0.00 0.00 0.00 96 1020.4
20260906113346 66 272 0.9 0.9 0.00 0.00 0.00 96 1020.4
20260906112842 67 279 0.9 1.7 0.00 0.00 0.00 96 1020.4
20260906112338 67 281 0.9 1.7 0.00 0.00 0.00 96 1020.3
20260906111838 67 311 1.7 2.6 0.00 0.00 0.00 96 1020.2
20260906111337 67 305 0.9 2.6 0.00 0.00 0.00 96 1020.2
20260906110832 67 320 1.7 2.6 0.00 0.00 0.00 96 1020.3
20260906110328 67 311 2.6 2.6 0.00 0.00 0.00 96 1020.1
20260906105827 67 309 1.7 1.7 0.00 0.00 0.00 96 1020.1
20260906105323 67 245 0.9 1.7 0.00 0.00 0.00 96 1020.1
20260906104819 67 312 1.7 1.7 0.00 0.00 0.00 96 1020.2
20260906104317 67 283 0.9 1.7 0.00 0.00 0.00 96 1020.1
20260906103816 67 236 0.9 1.7 0.00 0.00 0.00 96 1020.2
20260906103315 67 265 1.7 1.7 0.00 0.00 0.00 96 1020.2
20260906102811 67 239 0.9 1.7 0.00 0.00 0.00 96 1020.2
20260906102310 67 296 1.7 2.6 0.00 0.00 0.00 96 1020.2
20260906101805 67 299 1.7 1.7 0.00 0.00 0.00 96 1020.2
20260906101300 66 312 1.7 2.6 0.00 0.00 0.00 96 1020.0
20260906100755 66 312 2.6 2.6 0.00 0.00 0.00 96 1020.0
20260906100254 66 308 1.7 2.6 0.00 0.00 0.00 96 1020.0
20260906095750 66 294 1.7 2.6 0.00 0.00 0.00 96 1020.0
20260906095245 66 247 0.0 1.7 0.00 0.00 0.00 96 1020.1
20260906094744 66 255 0.9 1.7 0.00 0.00 0.00 96 1020.1
20260906094239 66 281 0.9 1.7 0.00 0.00 0.00 96 1019.8
20260906093736 66 296 0.9 1.7 0.00 0.00 0.00 96 1019.9
20260906093231 66 285 0.9 0.9 0.00 0.00 0.00 96 1019.7
20260906092726 66 306 0.0 1.7 0.00 0.00 0.00 95 1019.7
20260906092226 66 315 1.7 1.7 0.00 0.00 0.00 95 1019.8
20260906091722 66 320 1.7 2.6 0.00 0.00 0.00 95 1019.7
20260906091218 66 269 0.0 1.7 0.00 0.00 0.00 95 1019.7
20260906090714 67 246 1.7 1.7 0.00 0.00 0.00 95 1019.8
20260906090214 67 251 0.9 1.7 0.00 0.00 0.00 95 1019.8
20260906085713 67 316 1.7 2.6 0.00 0.00 0.00 95 1019.9
20260906085212 67 318 1.7 2.6 0.00 0.00 0.00 95 1019.7
20260906084707 67 258 0.9 1.7 0.00 0.00 0.00 95 1020.0
20260906084206 67 309 1.7 1.7 0.00 0.00 0.00 95 1019.9
20260906083701 67 307 1.7 1.7 0.00 0.00 0.00 96 1019.8
20260906083157 67 316 1.7 1.7 0.00 0.00 0.00 96 1019.7
20260906082652 67 287 0.0 1.7 0.00 0.00 0.00 97 1019.7
20260906082147 67 268 0.9 1.7 0.00 0.00 0.00 97 1019.8
20260906081643 67 272 0.9 1.7 0.00 0.00 0.00 97 1019.6
20260906081138 67 268 0.9 1.7 0.00 0.00 0.00 97 1019.9
20260906080635 67 258 1.7 1.7 0.00 0.00 0.00 97 1019.8
20260906080131 67 260 0.9 1.7 0.00 0.00 0.00 97 1019.7
20260906075630 67 254 1.7 1.7 0.00 0.00 0.00 97 1019.6
20260906075125 67 279 1.7 1.7 0.00 0.00 0.00 97 1019.8
20260906074620 66 269 0.9 1.7 0.00 0.00 0.00 97 1019.8
20260906074119 66 253 0.9 1.7 0.00 0.00 0.00 96 1019.6
20260906073614 67 258 1.7 1.7 0.00 0.00 0.00 96 1019.5
20260906073109 67 254 0.9 1.7 0.00 0.00 0.00 96 1019.4
20260906072604 67 259 0.9 1.7 0.00 0.00 0.00 96 1019.3
20260906072100 67 269 0.9 1.7 0.00 0.00 0.00 97 1019.6
20260906071557 67 267 0.9 1.7 0.00 0.00 0.00 97 1019.5
20260906071051 67 274 1.7 1.7 0.00 0.00 0.00 97 1019.5
20260906070548 67 262 0.9 1.7 0.00 0.00 0.00 97 1019.5
20260906070043 67 277 0.9 1.7 0.00 0.00 0.00 97 1019.4
20260906065542 67 267 0.9 1.7 0.00 0.00 0.00 97 1019.5
20260906065038 67 280 1.7 1.7 0.00 0.00 0.00 97 1019.5
20260906064534 67 255 0.9 1.7 0.00 0.00 0.00 97 1019.6
20260906064029 67 260 0.9 1.7 0.00 0.00 0.00 97 1019.6
20260906063524 67 273 1.7 1.7 0.00 0.00 0.00 97 1019.7
20260906063020 67 257 0.9 1.7 0.00 0.00 0.00 97 1019.7
20260906062515 67 256 1.7 1.7 0.00 0.00 0.00 97 1019.7
20260906062009 67 257 0.9 1.7 0.00 0.00 0.00 97 1019.7
20260906061505 67 265 1.7 1.7 0.00 0.00 0.00 97 1019.5
20260906060959 67 262 0.9 1.7 0.00 0.00 0.00 97 1019.7
20260906060456 66 267 1.7 1.7 0.00 0.00 0.00 97 1019.6
20260906055953 66 259 0.9 1.7 0.00 0.00 0.00 96 1019.6
20260906055448 66 252 1.7 1.7 0.00 0.00 0.00 96 1019.5
20260906054944 66 258 0.9 1.7 0.00 0.00 0.00 96 1019.4
20260906054443 66 276 0.9 1.7 0.00 0.00 0.00 96 1019.5
20260906053939 66 256 0.9 1.7 0.00 0.00 0.00 96 1019.6
20260906053435 66 261 0.9 1.7 0.00 0.00 0.00 96 1019.5
20260906052930 66 257 0.9 1.7 0.00 0.00 0.00 96 1019.5
20260906052427 66 258 0.9 0.9 0.00 0.00 0.00 96 1019.5
20260906051923 67 250 0.9 1.7 0.00 0.00 0.00 95 1019.4
20260906051424 67 262 0.9 1.7 0.00 0.00 0.00 95 1019.6
20260906050919 67 271 0.9 1.7 0.00 0.00 0.00 95 1019.4
20260906050419 67 267 0.9 1.7 0.00 0.00 0.00 95 1019.3
20260906045918 67 258 0.9 1.7 0.00 0.00 0.00 95 1019.3
20260906045417 67 274 0.9 1.7 0.00 0.00 0.00 95 1019.3
20260906044914 67 265 0.9 1.7 0.00 0.00 0.00 95 1019.4
20260906044414 67 254 1.7 1.7 0.00 0.00 0.00 94 1019.3
20260906043909 67 235 1.7 1.7 0.00 0.00 0.00 94 1019.3
20260906043405 68 247 1.7 1.7 0.00 0.00 0.00 94 1019.1
20260906042901 68 261 1.7 1.7 0.00 0.00 0.00 93 1019.0
20260906042359 68 249 1.7 1.7 0.00 0.00 0.00 93 1018.9
20260906041855 68 247 1.7 1.7 0.00 0.00 0.00 93 1018.9
20260906041351 68 281 0.0 1.7 0.00 0.00 0.00 93 1018.9
20260906040851 68 328 1.7 2.6 0.00 0.00 0.00 93 1018.7
20260906040347 69 329 1.7 2.6 0.00 0.00 0.00 93 1018.7
20260906035847 69 316 1.7 2.6 0.00 0.00 0.00 92 1018.8
20260906035342 69 338 2.6 2.6 0.00 0.00 0.00 92 1018.8
20260906034837 69 337 1.7 2.6 0.00 0.00 0.00 92 1019.0
20260906034333 69 313 1.7 2.6 0.00 0.00 0.00 91 1018.8
20260906033828 69 319 1.7 2.6 0.00 0.00 0.00 91 1019.0
20260906033327 69 343 1.7 2.6 0.00 0.00 0.00 90 1019.0
20260906032824 69 335 0.9 2.6 0.00 0.00 0.00 90 1018.8
20260906032320 69 337 1.7 2.6 0.00 0.00 0.00 89 1018.9
20260906031814 69 337 1.7 2.6 0.00 0.00 0.00 89 1018.9
20260906031310 69 351 1.7 2.6 0.00 0.00 0.00 88 1018.8
20260906030810 69 332 2.6 3.5 0.00 0.00 0.00 88 1018.9
20260906030305 69 344 1.7 3.5 0.00 0.00 0.00 87 1018.9
20260906025805 70 342 1.7 3.5 0.00 0.00 0.00 86 1018.8
20260906025259 70 326 3.5 3.5 0.00 0.00 0.00 86 1019.0
20260906024758 70 328 2.6 3.5 0.00 0.00 0.00 86 1018.8
20260906024257 70 324 1.7 3.5 0.00 0.00 0.00 86 1018.7
20260906023753 70 309 1.7 4.3 0.00 0.00 0.00 87 1018.7
20260906023248 70 331 3.5 3.5 0.00 0.00 0.00 87 1018.7
20260906022744 70 350 2.6 3.5 0.00 0.00 0.00 87 1018.7
20260906022239 70 334 2.6 3.5 0.00 0.00 0.00 87 1018.5
20260906021735 70 335 2.6 3.5 0.00 0.00 0.00 88 1018.4
20260906021233 70 353 3.5 3.5 0.00 0.00 0.00 87 1018.5
20260906020728 70 324 2.6 3.5 0.00 0.00 0.00 88 1018.8
20260906020223 70 223 0.9 2.6 0.00 0.00 0.00 89 1018.7
20260906015723 71 293 0.0 1.7 0.00 0.00 0.00 89 1018.7
20260906015221 71 265 0.0 1.7 0.00 0.00 0.00 89 1018.4
20260906014716 71 308 1.7 2.6 0.00 0.00 0.00 89 1018.6
20260906014212 71 337 1.7 1.7 0.00 0.00 0.00 89 1018.6
20260906013708 71 317 1.7 3.5 0.00 0.00 0.00 89 1018.5
20260906013208 71 333 0.9 2.6 0.00 0.00 0.00 89 1018.7
20260906012704 71 306 0.9 1.7 0.00 0.00 0.00 89 1018.8
20260906012204 71 323 0.9 1.7 0.00 0.00 0.00 89 1018.6
20260906011700 71 280 0.0 1.7 0.00 0.00 0.00 89 1018.6
20260906011159 71 329 1.7 3.5 0.00 0.00 0.00 89 1018.7
20260906010655 71 316 1.7 1.7 0.00 0.00 0.00 89 1018.5
20260906010152 71 342 1.7 2.6 0.00 0.00 0.00 89 1018.8
20260906005651 72 269 0.9 1.7 0.00 0.00 0.00 89 1018.6
20260906005150 72 309 1.7 1.7 0.00 0.00 0.00 89 1018.6
20260906004649 72 311 1.7 2.6 0.00 0.00 0.00 88 1018.5
20260906004144 72 327 3.5 3.5 0.00 0.00 0.00 88 1018.4
20260906003640 72 309 1.7 3.5 0.00 0.00 0.00 88 1018.3
20260906003135 72 273 1.7 1.7 0.00 0.00 0.00 88 1018.5
20260906002630 72 318 1.7 1.7 0.00 0.00 0.00 87 1018.4
20260906002125 72 322 1.7 2.6 0.00 0.00 0.00 87 1018.4
20260906001620 72 336 1.7 3.5 0.00 0.00 0.00 87 1018.5
20260906001120 72 285 0.9 3.5 0.00 0.00 0.00 87 1018.5
20260906000616 72 327 2.6 3.5 0.00 0.00 0.00 87 1018.4
20260906000111 73 264 1.7 3.5 0.00 0.00 0.00 88 1018.6
20260905235610 73 271 0.9 2.6 0.00 0.00 0.00 88 1018.4
20260905235105 73 310 1.7 3.5 0.00 0.00 0.00 88 1018.8
20260905234601 73 312 1.7 2.6 0.00 0.00 0.00 88 1018.6
20260905234056 73 328 2.6 2.6 0.00 0.00 0.00 89 1018.5
20260905233555 73 332 3.5 3.5 0.00 0.00 0.00 88 1018.5
20260905233050 73 303 1.7 2.6 0.00 0.00 0.00 89 1018.5
20260905232546 73 301 1.7 2.6 0.00 0.00 0.00 89 1018.4
20260905232041 73 330 2.6 2.6 0.00 0.00 0.00 88 1018.7
20260905231536 73 312 1.7 2.6 0.00 0.00 0.00 89 1018.7
20260905231033 73 308 1.7 2.6 0.00 0.00 0.00 89 1018.6
20260905230532 73 331 2.6 2.6 0.00 0.00 0.00 89 1018.5
20260905230031 73 3 4.3 5.2 0.00 0.00 0.00 87 1018.4
20260905225526 73 324 3.5 3.5 0.00 0.00 0.00 88 1018.4
20260905225021 73 325 1.7 3.5 0.00 0.00 0.00 87 1018.3
20260905224521 73 255 0.0 5.2 0.00 0.00 0.00 86 1018.4
20260905224020 74 344 2.6 5.2 0.00 0.00 0.00 86 1018.5
20260905223518 74 329 2.6 5.2 0.00 0.00 0.00 86 1018.4
20260905223014 74 347 2.6 4.3 0.00 0.00 0.00 86 1018.2
20260905222513 74 335 1.7 5.2 0.00 0.00 0.00 86 1018.2
20260905222009 74 330 2.6 3.5 0.00 0.00 0.00 85 1018.0
20260905221505 74 346 2.6 5.2 0.00 0.00 0.00 85 1018.0
20260905221001 75 332 3.5 3.5 0.00 0.00 0.00 85 1018.0
20260905220457 75 3 1.7 3.5 0.00 0.00 0.00 85 1017.8
20260905215956 75 341 3.5 4.3 0.00 0.00 0.00 85 1017.9
20260905215451 75 322 2.6 3.5 0.00 0.00 0.00 86 1017.8
20260905214948 75 298 1.7 4.3 0.00 0.00 0.00 85 1017.8
20260905214444 75 343 3.5 4.3 0.00 0.00 0.00 85 1017.5
20260905213943 75 354 2.6 3.5 0.00 0.00 0.00 85 1017.8
20260905213440 75 332 3.5 3.5 0.00 0.00 0.00 85 1017.7
20260905212935 75 336 2.6 4.3 0.00 0.00 0.00 84 1017.8
20260905212430 75 350 3.5 5.2 0.00 0.00 0.00 84 1017.7
20260905211928 76 336 3.5 4.3 0.00 0.00 0.00 83 1017.7
20260905211425 77 0 4.3 4.3 0.00 0.00 0.00 82 1017.7
20260905210920 77 335 1.7 4.3 0.00 0.00 0.00 82 1017.6
20260905210421 78 345 3.5 5.2 0.00 0.00 0.00 80 1017.6
20260905205920 78 339 1.7 3.5 0.00 0.00 0.00 81 1017.3
20260905205415 78 329 2.6 5.2 0.00 0.00 0.00 80 1017.4
20260905204914 79 335 1.7 4.3 0.00 0.00 0.00 78 1017.5
20260905204410 79 337 3.5 5.2 0.00 0.00 0.00 78 1017.6
20260905203909 79 352 2.6 5.2 0.00 0.00 0.00 78 1017.5
20260905203404 79 5 3.5 3.5 0.00 0.00 0.00 79 1017.5
20260905202900 79 331 2.6 3.5 0.00 0.00 0.00 79 1017.5
20260905202355 79 334 4.3 4.3 0.00 0.00 0.00 78 1017.4
20260905201851 79 322 1.7 2.6 0.00 0.00 0.00 80 1017.5
20260905201346 80 325 2.6 4.3 0.00 0.00 0.00 78 1017.5
20260905200845 80 342 1.7 2.6 0.00 0.00 0.00 80 1017.5
20260905200342 79 329 1.7 5.2 0.00 0.00 0.00 79 1017.5
20260905195840 80 341 2.6 4.3 0.00 0.00 0.00 78 1017.7
20260905195335 80 351 2.6 4.3 0.00 0.00 0.00 78 1017.5
20260905194831 80 339 2.6 5.2 0.00 0.00 0.00 80 1017.5
20260905194330 79 348 5.2 5.2 0.00 0.00 0.00 81 1017.5
20260905193829 79 332 3.5 4.3 0.00 0.00 0.00 81 1017.6
20260905193324 79 319 1.7 3.5 0.00 0.00 0.00 80 1017.5
20260905192820 79 358 2.6 5.2 0.00 0.00 0.00 81 1017.4
20260905192316 79 352 3.5 4.3 0.00 0.00 0.00 81 1017.3
20260905191815 80 339 2.6 5.2 0.00 0.00 0.00 82 1017.5
20260905191314 80 340 5.2 5.2 0.00 0.00 0.00 81 1017.4
20260905190813 80 348 3.5 5.2 0.00 0.00 0.00 80 1017.4
20260905190307 80 307 0.9 3.5 0.00 0.00 0.00 80 1017.5
20260905185806 81 325 2.6 3.5 0.00 0.00 0.00 78 1017.5
20260905185305 81 323 2.6 4.3 0.00 0.00 0.00 77 1017.5
20260905184800 81 352 2.6 4.3 0.00 0.00 0.00 78 1017.4
20260905184259 81 333 0.9 2.6 0.00 0.00 0.00 78 1017.3
20260905183758 81 359 3.5 4.3 0.00 0.00 0.00 77 1017.6
20260905183255 81 313 1.7 3.5 0.00 0.00 0.00 77 1017.4
20260905182754 81 345 3.5 3.5 0.00 0.00 0.00 78 1017.4
20260905182253 81 339 3.5 3.5 0.00 0.00 0.00 78 1017.3
20260905181749 81 346 2.6 3.5 0.00 0.00 0.00 77 1017.4
20260905181249 81 0 2.6 2.6 0.00 0.00 0.00 77 1017.5
20260905180748 81 301 1.7 2.6 0.00 0.00 0.00 80 1017.4
20260905180243 80 351 2.6 3.5 0.00 0.00 0.00 80 1017.5
20260905175738 80 359 3.5 4.3 0.00 0.00 0.00 78 1017.5
20260905175233 81 351 0.9 2.6 0.00 0.00 0.00 77 1017.6
20260905174728 80 305 1.7 2.6 0.00 0.00 0.00 81 1017.5
20260905174224 81 343 2.6 4.3 0.00 0.00 0.00 78 1017.5
20260905173720 80 223 1.7 3.5 0.00 0.00 0.00 80 1017.6
20260905173216 79 326 1.7 1.7 0.00 0.00 0.00 82 1017.7
20260905172715 79 318 1.7 2.6 0.00 0.00 0.00 81 1017.5
20260905172215 80 321 1.7 2.6 0.00 0.00 0.00 81 1017.6
20260905171710 80 328 1.7 3.5 0.00 0.00 0.00 80 1017.5
20260905171206 80 335 1.7 2.6 0.00 0.00 0.00 80 1017.6
20260905170704 80 272 1.7 1.7 0.00 0.00 0.00 81 1017.6
20260905170204 80 336 1.7 2.6 0.00 0.00 0.00 80 1017.7
20260905165703 80 285 0.9 2.6 0.00 0.00 0.00 81 1017.5
20260905165159 79 338 1.7 3.5 0.00 0.00 0.00 82 1017.8
20260905164653 78 340 1.7 2.6 0.00 0.00 0.00 83 1017.7
20260905164153 78 257 0.9 1.7 0.00 0.00 0.00 85 1017.8
20260905163649 78 236 0.0 0.9 0.00 0.00 0.00 85 1017.7
20260905163145 78 317 1.7 1.7 0.00 0.00 0.00 85 1017.7
20260905162641 78 344 0.9 2.6 0.00 0.00 0.00 85 1017.7
20260905162141 78 298 0.0 2.6 0.00 0.00 0.00 85 1017.6
20260905161641 78 281 1.7 2.6 0.00 0.00 0.00 85 1017.6
20260905161139 78 348 1.7 2.6 0.00 0.00 0.00 85 1017.7
20260905160633 77 331 1.7 1.7 0.00 0.00 0.00 87 1017.6
20260905160133 77 284 0.0 2.6 0.00 0.00 0.00 86 1017.6
20260905155633 77 324 1.7 4.3 0.00 0.00 0.00 86 1017.7
20260905155131 77 356 2.6 3.5 0.00 0.00 0.00 86 1017.7
20260905154626 77 314 2.6 2.6 0.00 0.00 0.00 86 1017.6
20260905154121 77 22 1.7 4.3 0.00 0.00 0.00 86 1017.6
20260905153617 77 317 1.7 2.6 0.00 0.00 0.00 87 1017.5
20260905153112 77 323 2.6 5.2 0.00 0.00 0.00 86 1017.6
20260905152607 77 328 1.7 4.3 0.00 0.00 0.00 87 1017.5
20260905152102 77 259 1.7 4.3 0.00 0.00 0.00 86 1017.5
20260905151557 77 342 1.7 4.3 0.00 0.00 0.00 86 1017.5
20260905151053 77 344 3.5 3.5 0.00 0.00 0.00 87 1017.3
20260905150548 76 2 4.3 4.3 0.00 0.00 0.00 88 1017.3
20260905150046 76 325 0.0 3.5 0.00 0.00 0.00 88 1017.3
20260905145544 76 329 1.7 3.5 0.00 0.00 0.00 89 1017.3
20260905145044 76 334 3.5 3.5 0.00 0.00 0.00 89 1017.1
20260905144538 76 13 2.6 3.5 0.00 0.00 0.00 89 1017.1
20260905144038 75 346 2.6 3.5 0.00 0.00 0.00 89 1017.1
20260905143537 75 310 1.7 4.3 0.00 0.00 0.00 89 1016.8
20260905143032 75 324 1.7 3.5 0.00 0.00 0.00 91 1016.8
20260905142532 75 232 0.9 3.5 0.00 0.00 0.00 92 1016.9
20260905142027 75 334 1.7 3.5 0.00 0.00 0.00 92 1016.7
20260905141527 74 309 1.7 3.5 0.00 0.00 0.00 92 1016.7
20260905141024 74 350 2.6 2.6 0.00 0.00 0.00 92 1016.9
20260905140524 74 348 1.7 3.5 0.00 0.00 0.00 92 1016.8
20260905140023 74 332 1.7 3.5 0.00 0.00 0.00 92 1016.8
20260905135519 74 328 1.7 3.5 0.00 0.00 0.00 93 1016.7
20260905135013 74 313 0.0 3.5 0.00 0.00 0.00 93 1016.6
20260905134508 74 335 1.7 3.5 0.00 0.00 0.00 93 1016.7
20260905134007 74 345 1.7 4.3 0.00 0.00 0.00 93 1016.8